Snowfall_Accumulation
0.0 0.0 0.3 0.0 0.0 0.0 0.0 0.2 0.2 0.0 0.0 0.1 0.0 0.3 0.0 0.1 0.0 0.0 0.0 0.0 0.0 0.1 0.1 0.0 0.0 0.0 0.0 0.0 0.0 0.0 0.0 0.0 0.0 0.0 0.0 0.0 0.0 0.0 0.0 0.0 0.0 0.0 0.0 0.0
0.1 0.0 0.0 0.0 0.0 0.0 0.0 0.2 0.2 0.0 0.0 0.0 0.1 0.2 0.4 0.1 0.0 0.0 0.0 0.0 0.1 0.2 0.3 0.2 0.1 0.0 0.0 0.0 0.0 0.0 0.0 0.0 0.0 0.0 0.0 0.0 0.0 0.0 0.0 0.0 0.0 0.0 0.0 0.0
0.1 0.0 0.0 0.0 0.0 0.1 0.1 0.2 0.1 0.1 0.0 0.0 0.1 0.9 0.4 0.1 0.0 0.0 0.0 0.1 0.1 0.2 0.3 0.3 0.3 0.3 0.1 0.0 0.0 0.0 0.0 0.0 0.0 0.0 0.0 0.0 0.0 0.0 0.0 0.0 0.0 0.0 0.0 0.0
0.0 0.0 0.0 0.0 0.1 0.0 2.3 0.0 0.0 0.1 4.0 2.3 0.7 9.3 0.1 0.0 0.0 0.0 0.0 0.2 0.2 0.2 0.1 0.1 0.1 0.2 0.2 0.1 0.0 0.0 0.1 0.1 0.0 0.0 0.0 0.0 0.0 0.0 0.0 0.0 0.0 0.0 0.0 0.0
0.1 0.1 0.1 2.1 0.1 0.0 2.9 0.0 0.0 0.2 2.6 4.0 0.6 7.6 0.3 0.0 0.0 0.0 0.0 0.1 0.2 0.3 0.5 0.4 0.5 0.5 0.3 0.2 0.1 0.1 0.1 0.1 0.2 0.1 0.0 0.0 0.1 0.0 0.0 0.0 0.0 0.0 0.0 0.0
0.1 0.0 0.1 0.1 0.0 0.0 0.0 0.4 0.0 1.0 1.6 19.7 1.6 0.9 0.6 0.9 3.1 0.0 0.0 0.0 0.0 0.2 0.1 0.1 0.2 0.3 0.3 0.1 0.1 0.1 0.1 0.2 0.2 0.2 0.2 0.2 0.2 0.0 0.1 0.0 0.0 0.0 0.0 0.0
0.1 0.1 0.0 0.0 0.3 0.0 0.5 1.4 15.5 21.6 29.2 12.2 0.4 0.5 1.2 0.6 1.0 1.2 1.1 0.3 0.7 0.3 0.1 0.1 0.1 0.2 0.2 0.2 0.2 0.2 0.3 0.5 0.5 0.5 0.4 0.4 0.3 0.2 0.1 0.0 0.0 0.1 0.2 0.1
3.9 6.4 0.7 0.2 0.8 3.9 0.3 3.9 8.1 10.3 8.4 3.4 0.1 7.6 3.0 2.1 2.7 4.2 2.0 2.1 0.2 0.1 0.1 0.2 0.2 0.2 0.1 0.1 0.1 0.2 0.2 0.6 0.7 0.7 0.6 0.7 0.8 0.4 0.1 0.1 0.0 0.1 0.8 0.5
6.1 2.2 0.0 0.2 0.2 0.1 0.8 2.9 0.2 7.1 3.8 7.6 2.8 0.5 0.4 0.1 1.6 2.1 3.8 0.1 0.2 0.2 0.3 0.5 0.3 0.3 0.3 0.3 0.3 0.5 0.4 0.6 0.8 0.8 0.8 0.8 0.9 0.8 0.6 0.4 0.4 0.5 0.3 0.8
1.9 8.8 0.0 0.0 0.6 0.1 0.2 0.1 4.5 4.8 14.7 7.5 2.1 1.6 6.6 2.8 6.1 1.7 3.4 0.8 0.5 0.2 0.2 0.3 0.4 0.4 0.3 0.4 0.5 0.4 0.8 2.8 2.5 1.2 0.9 0.9 1.2 1.4 2.2 2.8 1.7 2.7 3.0 2.9
0.3 5.1 1.0 0.3 7.4 7.2 1.3 1.3 0.8 2.0 5.6 13.5 8.4 8.4 15.0 7.7 7.7 6.3 2.1 1.1 1.4 0.9 0.8 0.8 0.6 0.6 1.5 1.6 2.1 2.1 2.5 6.0 2.5 2.2 1.4 1.4 1.7 2.1 3.9 3.1 3.2 5.5 6.3 8.2
0.5 3.0 9.2 6.7 3.5 0.3 0.2 5.1 2.2 9.6 6.7 6.2 8.5 9.7 7.8 8.3 8.5 4.4 1.9 1.5 0.9 1.0 1.4 1.2 1.6 2.4 4.1 4.3 4.5 5.8 5.3 7.9 3.7 2.7 1.8 2.1 2.0 2.7 5.4 4.8 4.9 4.7 5.1 5.6
1.5 1.3 8.8 6.8 3.8 0.1 2.4 1.3 2.2 2.2 3.7 9.1 11.8 11.2 6.3 6.1 5.1 3.6 4.5 2.3 1.6 1.5 1.2 2.6 4.4 6.6 6.9 6.4 7.2 9.0 9.2 7.4 4.2 3.6 2.3 2.4 2.9 2.5 3.9 5.3 4.1 3.3 2.3 2.6
nan 1.0 7.0 10.7 9.9 8.6 8.4 3.3 0.9 1.8 16.6 10.5 12.7 13.6 10.9 7.8 6.7 4.4 3.1 2.5 3.4 5.1 7.2 7.9 7.5 8.8 9.3 9.5 11.2 9.6 11.1 6.2 5.6 4.8 3.5 3.7 3.9 3.7 3.3 3.4 3.4 2.4 2.6 2.6
0.7 7.0 4.7 6.3 6.0 9.3 9.6 6.9 3.2 6.3 8.9 9.2 14.1 13.6 15.1 14.0 11.8 10.0 8.4 7.5 6.7 8.9 9.0 10.6 12.2 13.6 15.0 13.7 11.2 7.8 6.7 6.4 6.3 6.5 5.4 6.3 5.7 4.8 5.2 5.1 5.2 4.0 3.4 3.5
0.5 5.6 4.8 6.0 5.1 8.3 7.7 4.4 3.3 2.6 3.8 4.9 7.2 11.4 16.0 14.2 13.3 15.2 15.6 12.7 13.1 14.9 15.4 16.4 17.4 17.3 15.5 13.3 11.7 7.2 6.7 7.2 7.4 8.4 9.8 9.4 6.2 5.3 4.9 3.9 4.6 3.4 4.0 4.1
2.1 6.2 9.4 17.1 3.8 2.4 13.9 19.4 8.8 11.7 7.9 4.2 11.8 18.3 20.7 22.7 17.6 19.5 18.0 17.4 17.2 19.5 21.8 22.7 19.5 15.0 9.1 6.2 3.5 4.6 5.2 5.1 3.5 3.8 3.8 3.3 3.7 3.1 3.1 2.5 2.2 3.3 3.8 2.1
2.9 5.1 5.5 18.5 7.9 42.1 15.9 7.8 8.1 19.2 12.6 12.9 9.5 13.3 17.6 24.2 25.0 22.7 20.5 18.7 18.6 19.1 15.4 10.4 5.6 3.1 3.4 1.8 1.9 0.7 0.6 1.0 1.6 2.6 2.0 2.0 2.0 1.9 1.5 1.4 1.9 1.9 2.0 1.7
1.6 3.6 21.6 33.6 22.1 5.1 0.8 10.1 13.1 10.9 16.3 16.7 16.6 12.0 15.9 13.0 6.7 15.0 15.9 14.3 16.4 12.6 8.3 7.8 6.5 6.7 1.7 2.8 2.1 1.0 1.6 1.1 1.1 2.5 2.3 2.1 1.3 1.5 1.0 1.3 1.3 1.4 1.3 1.3
0.5 1.3 3.5 23.9 25.8 31.4 7.0 3.9 1.2 4.0 15.0 16.5 18.9 18.4 11.3 0.1 6.2 15.9 14.5 8.7 8.1 6.8 5.2 4.8 3.6 2.6 1.5 1.9 0.7 0.2 0.3 0.3 0.7 0.8 0.9 0.9 0.8 0.8 0.9 0.6 0.6 0.6 0.4 0.3
11.7 13.5 24.2 19.2 19.7 10.9 3.7 0.4 0.0 7.9 12.3 17.1 15.2 14.9 2.0 4.1 6.3 10.2 6.4 4.6 4.5 3.8 3.8 2.5 1.9 2.1 1.6 1.2 1.4 1.1 0.8 1.2 0.5 0.4 0.2 0.2 0.2 0.6 0.2 0.3 0.2 0.3 0.5 0.2
6.8 13.4 24.4 16.6 21.6 35.0 1.8 0.0 4.1 7.4 9.3 10.4 7.9 6.0 5.5 7.7 7.7 5.5 4.2 4.3 3.0 3.1 1.6 1.0 0.3 0.2 0.2 0.1 0.1 0.1 0.2 0.3 0.4 0.6 0.8 0.9 1.6 0.8 0.7 2.6 1.3 2.1 1.6 1.8
6.1 1.8 4.6 2.6 5.3 3.3 3.4 3.5 4.3 5.4 4.9 4.6 2.3 2.0 0.6 0.5 0.8 0.2 0.1 0.0 0.0 0.0 0.0 0.1 0.1 0.2 0.2 0.4 0.4 0.6 0.7 0.8 1.4 2.7 4.3 3.7 2.8 2.2 2.0 3.4 2.2 3.8 2.7 3.9
0.6 0.3 1.3 1.9 1.3 2.8 3.5 1.7 1.9 2.1 0.4 0.1 0.0 0.0 0.0 0.0 0.0 0.0 0.0 0.0 0.0 0.0 0.1 0.1 0.3 0.5 0.5 0.4 0.4 0.4 0.7 1.1 5.3 5.0 2.6 1.8 2.3 1.3 1.6 2.3 2.7 4.3 4.2 4.0
0.2 0.1 0.2 1.0 0.6 1.2 0.6 0.3 0.4 0.9 0.9 0.1 0.0 0.0 0.0 0.0 0.0 0.0 0.0 0.1 0.0 0.1 0.2 0.4 0.6 0.5 0.6 0.6 0.7 1.5 1.5 2.2 2.5 3.1 1.9 2.3 2.9 3.0 2.0 1.8 3.0 2.6 1.2 3.3
0.1 0.2 0.4 0.8 0.3 0.2 0.1 0.0 0.0 0.0 0.0 0.0 0.0 0.0 0.0 0.0 0.0 0.1 0.1 0.1 0.1 0.3 0.4 0.8 1.2 1.1 1.3 1.9 2.3 3.3 4.4 3.7 4.1 2.1 3.5 3.1 3.0 3.1 2.8 3.2 4.1 nan nan nan
Water_Equivalent
0.00 0.00 0.10 0.00 0.00 0.00 0.00 0.03 0.03 0.00 0.00 0.01 0.00 0.04 0.00 0.01 0.00 0.00 0.00 0.00 0.00 0.02 0.02 0.01 0.00 0.00 0.00 0.00 0.00 0.00 0.00 0.00 0.00 0.00 0.00 0.00 0.00 0.00 0.00 0.00 0.00 0.00 0.00 0.00
0.02 0.01 0.00 0.00 0.00 0.00 0.00 0.03 0.04 0.00 0.00 0.01 0.02 0.03 0.06 0.01 0.00 0.00 0.01 0.00 0.01 0.02 0.04 0.03 0.02 0.01 0.00 0.00 0.00 0.00 0.00 0.00 0.00 0.00 0.00 0.00 0.00 0.00 0.00 0.00 0.00 0.00 0.00 0.00
0.03 0.00 0.00 0.00 0.00 0.02 0.02 0.04 0.02 0.01 0.00 0.00 0.01 0.11 0.06 0.02 0.00 0.00 0.00 0.02 0.02 0.03 0.04 0.04 0.04 0.05 0.02 0.00 0.00 0.00 0.00 0.00 0.00 0.00 0.00 0.00 0.00 0.00 0.00 0.00 0.00 0.00 0.00 0.00
0.01 0.00 0.00 0.00 0.01 0.01 0.38 0.00 0.00 0.02 0.53 0.32 0.10 1.15 0.01 0.00 0.00 0.01 0.01 0.02 0.02 0.02 0.01 0.02 0.02 0.03 0.03 0.02 0.01 0.00 0.01 0.01 0.00 0.00 0.00 0.00 0.00 0.00 0.00 0.00 0.00 0.00 0.00 0.00
0.02 0.01 0.02 0.37 0.01 0.00 0.47 0.00 0.01 0.04 0.41 0.43 0.07 0.78 0.03 0.00 0.00 0.00 0.00 0.01 0.03 0.03 0.06 0.05 0.06 0.07 0.04 0.03 0.02 0.01 0.01 0.02 0.03 0.02 0.00 0.01 0.01 0.00 0.00 0.00 0.00 0.00 0.00 0.00
0.02 0.00 0.03 0.02 0.00 0.01 0.00 0.07 0.01 0.17 0.28 2.93 0.19 0.11 0.07 0.10 0.31 0.00 0.00 0.00 0.01 0.03 0.02 0.02 0.04 0.05 0.04 0.02 0.02 0.01 0.02 0.03 0.03 0.03 0.03 0.03 0.03 0.01 0.02 0.00 0.00 0.00 0.00 0.00
0.03 0.02 0.01 0.01 0.06 0.00 0.11 0.23 2.60 3.77 4.63 1.81 0.06 0.08 0.12 0.07 0.12 0.14 0.10 0.03 0.09 0.04 0.02 0.02 0.02 0.03 0.03 0.03 0.03 0.03 0.05 0.06 0.07 0.07 0.06 0.06 0.06 0.03 0.02 0.01 0.00 0.02 0.06 0.05
0.76 1.38 0.16 0.06 0.15 0.58 0.05 0.52 1.07 1.06 1.04 0.49 0.02 1.11 0.39 0.25 0.32 0.47 0.21 0.27 0.03 0.02 0.02 0.03 0.03 0.03 0.02 0.01 0.02 0.03 0.04 0.08 0.09 0.10 0.09 0.10 0.11 0.07 0.02 0.01 0.00 0.01 0.21 0.15
0.94 0.45 0.01 0.05 0.07 0.02 0.13 0.47 0.03 0.88 0.66 0.76 0.49 0.06 0.05 0.02 0.21 0.22 0.38 0.02 0.03 0.03 0.05 0.07 0.05 0.05 0.05 0.04 0.05 0.07 0.06 0.08 0.11 0.11 0.11 0.10 0.12 0.11 0.10 0.09 0.09 0.12 0.07 0.21
0.34 1.24 0.00 0.01 0.18 0.03 0.04 0.02 0.67 0.91 2.05 0.91 0.27 0.20 0.77 0.33 0.58 0.14 0.36 0.09 0.07 0.04 0.05 0.05 0.06 0.06 0.04 0.06 0.07 0.07 0.14 0.52 0.41 0.21 0.14 0.13 0.15 0.21 0.35 0.45 0.27 0.49 0.64 0.51
0.07 0.73 0.21 0.05 1.57 1.18 0.21 0.19 0.11 0.24 0.80 1.52 0.88 1.14 2.15 0.62 0.57 0.56 0.24 0.13 0.16 0.11 0.12 0.11 0.09 0.08 0.32 0.35 0.62 0.40 0.47 1.23 0.46 0.34 0.22 0.21 0.24 0.29 0.56 0.44 0.47 0.87 1.01 1.34
0.08 0.45 1.44 1.35 0.77 0.08 0.05 0.73 0.29 1.54 0.94 0.85 1.08 1.00 1.12 0.79 0.79 0.44 0.20 0.17 0.13 0.14 0.18 0.16 0.21 0.45 1.00 1.03 1.10 1.12 0.93 1.54 0.72 0.59 0.33 0.34 0.31 0.40 0.91 0.72 0.68 0.69 0.76 0.90
0.27 0.29 1.69 1.37 0.75 0.03 0.37 0.20 0.32 0.25 0.53 1.22 1.66 1.34 0.77 0.74 0.64 0.41 0.45 0.27 0.22 0.21 0.19 0.33 0.71 1.38 1.59 1.22 1.29 1.66 1.58 1.40 0.75 0.81 0.47 0.43 0.53 0.42 0.77 0.99 0.78 0.60 0.44 0.46
nan 0.16 0.85 1.40 1.38 1.28 1.01 0.44 0.11 0.27 2.95 1.49 1.31 1.31 1.07 0.81 0.79 0.56 0.45 0.29 0.37 0.55 0.83 1.11 1.14 1.50 1.65 1.72 2.04 1.65 2.01 1.27 1.18 1.06 0.60 0.57 0.67 0.61 0.53 0.56 0.64 0.40 0.50 0.52
0.11 1.16 0.54 0.82 0.79 1.29 1.39 0.86 0.36 0.65 1.08 1.16 1.46 1.27 1.39 1.29 1.17 1.19 1.06 0.77 0.66 0.86 0.92 1.20 1.69 2.03 2.66 2.56 2.03 1.41 1.18 1.22 1.27 1.29 0.83 0.87 0.88 0.68 0.75 0.69 0.78 0.55 0.51 0.58
0.08 1.18 0.55 0.90 0.77 1.20 1.11 0.57 0.45 0.30 0.41 0.56 0.86 1.16 1.72 1.56 1.33 1.48 1.63 1.17 1.18 1.32 1.47 1.97 2.47 2.69 2.21 1.84 1.51 1.01 0.88 1.00 1.23 1.20 1.34 1.19 0.75 0.63 0.55 0.45 0.55 0.48 0.75 0.84
0.30 0.85 2.10 3.63 0.51 0.34 2.58 2.05 1.01 1.32 0.91 0.50 1.11 2.51 2.62 2.48 1.69 1.80 1.61 1.51 1.55 1.92 2.48 2.67 2.36 1.61 0.91 0.65 0.36 0.47 0.58 0.60 0.42 0.47 0.40 0.35 0.39 0.33 0.37 0.29 0.27 0.45 0.57 0.33
0.35 0.76 1.11 4.27 1.93 7.24 2.21 1.11 1.09 2.29 1.45 1.38 1.01 1.53 2.14 2.81 2.45 2.18 1.93 1.65 1.66 1.75 1.65 1.17 0.74 0.44 0.56 0.23 0.31 0.09 0.07 0.11 0.19 0.29 0.24 0.23 0.21 0.26 0.22 0.19 0.28 0.30 0.30 0.27
0.24 0.51 4.57 6.50 3.74 0.80 0.14 1.27 1.46 1.14 1.95 1.94 1.70 1.34 2.05 1.77 0.65 1.73 1.87 1.51 1.71 1.26 0.99 0.94 0.89 0.92 0.23 0.38 0.28 0.13 0.20 0.14 0.13 0.31 0.31 0.30 0.22 0.25 0.18 0.21 0.21 0.23 0.20 0.19
0.09 0.18 0.60 5.40 5.36 4.40 1.03 0.51 0.21 0.59 1.93 2.05 2.39 2.18 1.52 0.02 0.81 2.31 2.22 1.10 1.07 0.84 0.62 0.58 0.45 0.35 0.22 0.29 0.11 0.05 0.06 0.07 0.11 0.12 0.13 0.14 0.15 0.16 0.18 0.12 0.12 0.13 0.09 0.07
2.37 3.23 5.38 4.20 4.25 1.95 0.55 0.07 0.00 1.00 1.72 2.22 2.04 1.96 0.24 0.44 0.81 1.48 0.84 0.60 0.58 0.49 0.51 0.33 0.27 0.27 0.27 0.23 0.24 0.16 0.13 0.17 0.10 0.08 0.05 0.04 0.05 0.11 0.04 0.05 0.04 0.07 0.09 0.04
1.15 2.52 4.94 3.38 4.39 5.25 0.27 0.00 0.42 1.09 1.21 1.46 1.15 0.80 0.64 1.04 1.04 0.75 0.57 0.58 0.40 0.39 0.20 0.18 0.06 0.04 0.03 0.02 0.01 0.03 0.03 0.03 0.05 0.07 0.09 0.12 0.24 0.13 0.11 0.47 0.21 0.40 0.29 0.32
0.98 0.32 0.96 0.40 0.94 0.52 0.47 0.49 0.64 0.76 0.74 0.72 0.35 0.26 0.08 0.06 0.11 0.02 0.01 0.01 0.00 0.00 0.00 0.01 0.01 0.02 0.02 0.05 0.05 0.07 0.08 0.08 0.15 0.36 0.61 0.56 0.45 0.35 0.33 0.60 0.33 0.67 0.45 0.67
0.10 0.04 0.26 0.31 0.22 0.40 0.50 0.26 0.29 0.31 0.07 0.02 0.00 0.00 0.00 0.00 0.00 0.00 0.00 0.00 0.00 0.01 0.02 0.02 0.06 0.08 0.07 0.06 0.07 0.06 0.08 0.13 0.83 0.80 0.36 0.24 0.33 0.22 0.26 0.44 0.53 0.84 0.73 0.65
0.06 0.03 0.05 0.17 0.11 0.22 0.12 0.04 0.07 0.14 0.14 0.02 0.00 0.00 0.00 0.00 0.00 0.00 0.01 0.02 0.01 0.01 0.03 0.06 0.08 0.07 0.07 0.08 0.08 0.20 0.18 0.29 0.36 0.47 0.24 0.32 0.47 0.51 0.29 0.26 0.51 0.43 0.19 0.57
0.03 0.04 0.11 0.18 0.06 0.04 0.02 0.00 0.00 0.00 0.00 0.00 0.00 0.01 0.01 0.01 0.00 0.01 0.02 0.01 0.02 0.04 0.06 0.10 0.14 0.12 0.13 0.19 0.24 0.37 0.58 0.53 0.55 0.23 0.44 0.44 0.45 0.42 0.38 0.42 0.48 nan nan nan
SL_Ratio
nan nan 3.1 nan nan nan 5.0 5.7 6.0 nan nan 5.9 nan 6.8 5.0 5.0 nan nan nan nan 8.0 7.1 6.3 5.9 nan nan nan nan nan nan nan nan nan nan nan nan nan nan nan nan nan nan nan nan
3.6 3.9 nan nan nan nan 5.0 5.5 5.3 nan nan 6.5 6.0 7.4 6.1 4.8 5.8 nan 7.8 7.5 7.6 7.4 7.1 6.5 6.2 5.6 5.0 nan nan nan nan nan nan nan nan nan nan nan nan nan nan nan nan nan
3.6 5.0 nan nan 4.2 4.6 5.2 5.6 6.4 7.2 nan nan 7.1 7.9 6.6 4.5 5.0 nan nan 7.3 7.6 7.9 7.9 7.3 6.8 6.6 6.1 5.7 5.0 5.0 5.0 nan nan nan nan nan nan nan nan nan nan nan nan nan
4.4 nan 5.0 5.0 4.3 4.5 6.2 nan nan 4.1 7.6 7.2 6.6 8.1 7.7 nan nan 7.8 8.1 8.0 8.0 7.9 7.1 7.3 7.0 6.9 6.3 6.1 5.4 5.0 5.7 5.5 5.0 nan 5.0 nan nan nan nan nan nan nan nan nan
4.5 5.6 4.6 5.7 5.0 7.5 6.2 nan 4.4 5.1 6.4 9.3 7.7 9.7 8.4 nan nan nan nan 8.3 8.3 7.8 7.6 7.1 7.3 6.7 6.1 6.0 5.9 5.9 5.5 5.6 5.6 5.4 6.7 5.9 5.8 nan nan nan nan nan nan nan
4.0 nan 3.8 4.1 nan 3.2 3.3 5.6 4.6 5.7 5.8 6.7 8.5 7.6 9.3 9.8 9.9 7.5 nan nan 8.3 7.4 6.7 6.6 6.2 6.4 6.5 6.1 6.0 5.7 6.1 6.1 5.8 5.9 5.8 5.8 5.9 5.4 5.6 6.7 nan nan nan nan
4.8 4.1 5.9 5.0 4.6 5.0 4.3 5.9 6.0 5.7 6.3 6.8 6.6 5.9 9.8 8.6 8.5 8.9 10.7 8.4 7.3 6.6 6.0 5.9 4.7 5.9 6.6 6.8 6.3 6.2 6.6 7.0 6.7 6.7 6.4 6.1 6.1 6.0 5.7 5.4 5.0 3.3 2.6 2.5
5.1 4.6 4.3 3.0 5.4 6.7 5.4 7.5 7.6 9.7 8.1 7.1 6.1 6.9 7.8 8.5 8.5 9.0 9.6 8.0 7.4 5.8 6.1 6.3 6.6 6.9 6.2 6.1 6.3 6.3 6.4 7.4 7.3 7.3 7.3 7.1 6.9 6.8 6.4 5.8 5.0 4.3 3.9 3.2
6.4 4.9 3.2 3.8 3.5 3.5 6.0 6.2 6.4 8.1 5.7 9.9 5.7 7.4 7.7 6.4 7.5 9.4 10.1 5.3 5.5 5.4 5.8 6.1 5.5 5.9 6.3 6.1 6.7 6.7 7.0 7.1 7.4 7.4 7.5 7.7 7.6 6.9 5.7 4.6 4.4 4.4 4.1 4.0
5.6 7.1 2.5 3.2 3.3 3.1 4.6 4.8 6.8 5.2 7.2 8.3 7.7 8.0 8.5 8.4 10.6 11.8 9.4 8.1 6.8 5.3 5.3 5.6 6.2 6.4 5.9 6.6 6.8 6.2 6.2 5.4 6.0 5.9 6.4 7.2 7.5 6.8 6.2 6.2 6.4 5.6 4.7 5.7
5.0 7.0 4.5 4.8 4.7 6.1 6.4 7.2 7.1 8.1 7.1 8.9 9.5 7.3 7.0 12.4 13.4 11.3 9.0 8.6 8.6 7.9 7.0 6.9 6.8 7.4 4.8 4.4 3.5 5.2 5.3 4.9 5.5 6.5 6.3 6.7 7.0 7.3 6.9 7.1 6.8 6.3 6.3 6.2
6.1 6.7 6.4 4.9 4.5 4.0 4.6 6.9 7.3 6.2 7.2 7.3 7.9 9.7 7.0 10.6 10.8 9.9 9.6 8.5 7.2 7.1 7.4 7.5 7.3 5.3 4.1 4.2 4.1 5.2 5.7 5.1 5.1 4.6 5.5 6.0 6.7 6.7 6.0 6.7 7.2 6.8 6.7 6.2
5.6 4.6 5.2 5.0 5.0 4.2 6.4 6.5 6.8 8.7 7.0 7.5 7.1 8.4 8.3 8.2 8.0 8.9 10.0 8.6 7.5 7.0 6.7 7.9 6.1 4.8 4.4 5.3 5.6 5.4 5.8 5.3 5.6 4.5 4.9 5.7 5.5 5.9 5.1 5.4 5.2 5.5 5.2 5.6
nan 6.2 8.2 7.7 7.2 6.7 8.3 7.5 8.2 6.9 5.6 7.0 9.8 10.4 10.2 9.6 8.5 7.8 6.9 8.8 9.2 9.2 8.7 7.1 6.7 5.9 5.6 5.6 5.5 5.8 5.5 4.9 4.7 4.5 5.9 6.5 5.8 5.9 6.2 6.0 5.4 6.0 5.2 5.0
6.2 6.0 8.7 7.7 7.6 7.2 6.9 8.0 9.0 9.8 8.2 7.9 9.6 10.7 10.9 10.8 10.1 8.4 8.0 9.7 10.1 10.3 9.8 8.9 7.3 6.7 5.6 5.4 5.5 5.5 5.7 5.3 5.0 5.1 6.5 7.3 6.5 7.1 6.9 7.4 6.6 7.3 6.8 6.1
6.0 4.7 8.8 6.6 6.6 6.9 7.0 7.7 7.4 8.6 9.3 8.8 8.4 9.8 9.3 9.1 10.0 10.3 9.6 10.9 11.1 11.3 10.5 8.3 7.1 6.4 7.0 7.2 7.8 7.1 7.6 7.1 6.0 7.0 7.3 7.9 8.2 8.4 8.9 8.6 8.4 7.0 5.4 4.9
7.1 7.2 4.4 4.7 7.4 7.2 5.4 9.5 8.7 8.9 8.7 8.5 10.7 7.3 7.9 9.1 10.4 10.8 11.2 11.5 11.1 10.1 8.8 8.5 8.2 9.3 10.1 9.5 9.8 9.9 8.9 8.5 8.2 8.1 9.5 9.4 9.5 9.3 8.3 8.4 8.2 7.2 6.7 6.4
8.2 6.8 5.0 4.3 4.1 5.8 7.2 7.1 7.4 8.4 8.7 9.3 9.4 8.7 8.2 8.6 10.2 10.4 10.6 11.3 11.2 10.9 9.3 8.9 7.6 6.9 6.1 7.7 6.1 7.8 9.5 9.0 8.4 8.8 8.5 8.9 9.3 7.5 6.8 7.3 6.8 6.3 6.6 6.4
6.7 7.1 4.7 5.2 5.9 6.3 5.4 8.0 9.0 9.5 8.3 8.6 9.8 9.0 7.7 7.3 10.2 8.7 8.5 9.5 9.6 9.9 8.3 8.3 7.3 7.2 7.3 7.2 7.6 7.6 7.8 8.0 8.5 8.0 7.4 6.8 6.0 5.9 5.7 6.3 6.3 6.1 6.5 6.6
5.9 7.0 5.8 4.4 4.8 7.1 6.8 7.6 5.8 6.8 7.8 8.1 7.9 8.4 7.4 5.6 7.7 6.9 6.5 7.8 7.6 8.1 8.4 8.3 8.0 7.4 6.7 6.5 6.0 5.0 5.2 5.3 6.7 6.7 6.7 6.4 5.1 5.1 5.3 4.9 5.2 5.0 4.4 4.4
5.0 4.2 4.5 4.6 4.6 5.6 6.8 5.6 nan 7.9 7.2 7.7 7.5 7.6 8.2 9.3 7.7 6.9 7.5 7.7 7.7 7.7 7.5 7.4 7.0 7.8 6.1 5.3 5.9 6.7 6.0 6.9 4.8 4.7 4.3 5.0 4.5 5.2 4.3 4.7 5.0 4.9 5.2 5.3
5.9 5.3 4.9 4.9 4.9 6.7 6.6 5.0 9.8 6.8 7.7 7.1 6.9 7.5 8.6 7.4 7.4 7.3 7.5 7.3 7.4 7.9 8.0 5.6 5.9 5.4 5.4 4.4 4.3 5.2 6.9 7.9 8.7 8.5 8.4 7.9 6.5 6.1 6.1 5.6 5.9 5.3 5.7 5.8
6.2 5.8 4.8 6.6 5.6 6.3 7.3 7.1 6.6 7.1 6.7 6.4 6.7 7.7 7.2 8.1 7.8 6.7 6.7 6.1 6.3 7.5 11.7 10.6 7.6 7.8 9.4 7.6 7.2 8.2 9.0 9.0 9.2 7.6 7.0 6.6 6.3 6.2 6.1 5.7 6.5 5.8 6.0 5.8
6.1 6.8 4.8 6.1 6.1 6.9 6.9 6.5 6.6 6.7 5.5 5.0 nan nan nan 7.5 nan nan nan nan nan 4.1 4.6 5.4 5.8 6.6 6.9 6.7 6.8 6.5 8.1 8.2 6.4 6.3 7.2 7.4 6.9 5.9 6.3 5.3 5.2 5.1 5.7 6.1
3.3 3.7 3.7 6.2 5.6 5.6 5.3 5.8 6.3 6.6 6.2 4.9 nan nan nan nan nan nan 3.6 4.1 3.8 5.4 6.4 7.0 6.9 7.2 7.9 8.0 8.0 7.6 8.0 7.6 6.9 6.7 8.1 7.2 6.3 6.0 6.9 6.7 5.9 6.2 6.4 5.7
4.3 4.8 3.5 4.5 5.3 5.2 5.2 5.0 nan 5.0 5.7 5.0 2.5 3.6 3.6 3.0 4.0 4.3 5.0 4.8 5.2 6.3 7.8 8.4 8.4 8.9 9.9 9.7 9.6 8.9 7.5 7.0 7.5 8.8 7.9 7.1 6.8 7.2 7.4 7.7 8.5 nan nan nan